Home > Weather > Nikaia > Past weeks

Flag for Greece Past Weather in Nikaia, Greece — Yesterday and Last 2 Weeks

Now
72 °F

Clear.


Feels Like: 76 °F
Forecast: 61 / 90 °F
Wind: No wind

Location: Elefsis Airport

Current Time: May 29, 2016 at 10:27:41 PM

Latest Report: May 29, 2016 at 9:50 PM


Visibility: 10 mi

Pressure: 29.92 "Hg

Humidity: 61%

Dew Point: 57 °F

Location of NikaiaLocation

Past Weather in Nikaia — Graph

°F

Nikaia Temperature Yesterday

Maximum temperature yesterday: 84 °F (at 1:20 PM)
Minimum temperature yesterday: 61 °F (at 5:20 AM)
Average temperature yesterday: 73 °F

High & Low Weather Summary for the Past Weeks

 TemperatureHumidityPressure
High88 °F (May 27, 2:50 PM)100% (May 27, 2:50 PM)30.04 "Hg (May 27, 2:50 PM)
Low54 °F (May 23, 3:50 AM)15% (May 24, 11:50 PM)29.65 "Hg (May 21, 2:50 PM)
Average70 °F48%29.90 "Hg
* Reported May 14 8:20 PM — May 29 8:50 PM, Nikaia, Weather by CustomWeather, © 2016

Note: Actual official high and low records may vary slightly from our data, if they occured in-between our weather recording intervals... More about our weather records

Advertising

Nikaia Weather History for the Previous 24 Hours

Scroll right to see more
 ConditionsComfort  
Time TempWeatherWind HumidityBarometerVisibility
8:50 PM
Sun, May 29
73 °FSunny.No wind53%29.92 "Hg10 mi
8:20 PM73 °FSunny.5 mph53%29.92 "Hg10 mi
7:50 PM73 °FSunny.9 mph53%29.92 "Hg10 mi
7:20 PM75 °FSunny.9 mph50%29.92 "Hg10 mi
6:50 PM77 °FSunny.13 mph42%29.92 "Hg10 mi
6:20 PM81 °FSunny.10 mph42%29.89 "Hg10 mi
5:50 PM81 °FSunny.10 mph39%29.89 "Hg10 mi
5:20 PM81 °FSunny.10 mph39%29.92 "Hg10 mi
4:50 PM81 °FSunny.10 mph34%29.92 "Hg10 mi
4:20 PM81 °FSunny.12 mph37%29.92 "Hg10 mi
3:50 PM81 °FSunny.10 mph45%29.92 "Hg10 mi
3:20 PM79 °FSunny.12 mph48%29.92 "Hg10 mi
2:50 PM81 °FSunny.14 mph39%29.92 "Hg10 mi
2:20 PM84 °FPartly sunny.10 mph35%29.92 "HgN/A
1:50 PM84 °FPartly sunny.6 mph29%29.92 "HgN/A
1:20 PM82 °FPartly sunny.6 mph30%29.95 "HgN/A
12:50 PM81 °FSunny.6 mph34%29.95 "Hg10 mi
12:20 PM81 °FSunny.6 mph37%29.95 "Hg10 mi
11:50 AM81 °FSunny.7 mph34%29.95 "Hg10 mi
11:20 AM81 °FSunny.5 mph32%29.95 "Hg10 mi
10:50 AM79 °FSunny.3 mph34%29.95 "Hg10 mi
10:20 AM79 °FSunny.No wind34%29.98 "Hg10 mi
9:50 AM77 °FSunny.3 mph39%29.98 "Hg10 mi
9:20 AM75 °FSunny.No wind39%29.98 "Hg10 mi
8:50 AM75 °FSunny.No wind39%29.98 "Hg10 mi
8:20 AM70 °FSunny.No wind50%29.98 "Hg10 mi
7:50 AM68 °FSunny.No wind53%29.98 "Hg10 mi
7:20 AM66 °FSunny.2 mph56%29.98 "Hg10 mi
6:50 AM64 °FClear.3 mph60%29.98 "Hg10 mi
6:20 AM63 °FClear.3 mph64%29.98 "Hg10 mi
5:50 AM63 °FClear.3 mph64%29.98 "Hg10 mi
5:20 AM63 °FClear.3 mph68%29.95 "Hg10 mi
4:50 AM63 °FClear.3 mph64%29.95 "Hg10 mi
4:20 AM63 °FClear.3 mph68%29.95 "Hg10 mi
3:50 AM63 °FClear.3 mph68%29.95 "Hg10 mi
3:20 AM63 °FClear.3 mph68%29.95 "Hg10 mi
2:50 AM64 °FClear.3 mph64%29.98 "Hg10 mi
2:20 AM64 °FClear.3 mph64%29.98 "Hg10 mi
1:50 AM64 °FClear.3 mph64%29.98 "Hg10 mi
1:20 AM64 °FClear.3 mph64%29.98 "Hg10 mi
12:50 AM64 °FClear.3 mph68%30.01 "Hg10 mi
12:20 AM64 °FClear.3 mph68%30.01 "Hg10 mi
11:50 PM
Sat, May 28
66 °FClear.3 mph64%30.01 "Hg10 mi
11:20 PM66 °FClear.No wind64%30.01 "Hg10 mi
10:50 PM66 °FClear.No wind68%30.01 "Hg10 mi
10:20 PM68 °FPassing clouds.No wind60%30.01 "HgN/A
Weather by CustomWeather, © 2016

See weather overviewHow to use our weather pages